| time (UTC) | temp F | wind direction | speed knots | gust knots | rain 1hr in | rain 24hr in | rain mn in | humidity % | barometer mb |
| 20260510054518 | 51 | 45 | 4.3 | 10.4 | 0.00 | 0.00 | 0.00 | 81 | 1001.8 |
| 20260510053015 | 52 | 58 | 3.5 | 13.0 | 0.00 | 0.00 | 0.00 | 81 | 1001.4 |
| 20260510051511 | 52 | 30 | 4.3 | 8.7 | 0.00 | 0.00 | 0.00 | 82 | 1000.8 |
| 20260510050009 | 52 | 70 | 2.6 | 10.4 | 0.00 | 0.00 | 0.00 | 82 | 1000.6 |
| 20260510044508 | 53 | 12 | 5.2 | 11.3 | 0.00 | 0.00 | 0.00 | 81 | 1000.0 |
| 20260510043003 | 54 | 65 | 3.5 | 9.6 | 0.00 | 0.00 | 0.00 | 80 | 999.7 |
| 20260510041600 | 55 | 91 | 6.1 | 10.4 | 0.00 | 0.00 | 0.00 | 80 | 999.3 |
| 20260510040110 | 57 | 74 | 6.1 | 11.3 | 0.00 | 0.00 | 0.00 | 77 | 998.7 |
| 20260510034555 | 58 | 50 | 2.6 | 9.6 | 0.00 | 0.00 | 0.00 | 76 | 998.5 |
| 20260510033053 | 58 | 3 | 6.1 | 11.3 | 0.00 | 0.00 | 0.00 | 74 | 997.7 |
| 20260510031554 | 60 | 65 | 5.2 | 7.8 | 0.00 | 0.00 | 0.00 | 72 | 997.2 |
| 20260510030044 | 63 | 18 | 4.3 | 10.4 | 0.00 | 0.00 | 0.00 | 66 | 996.9 |
| 20260510024542 | 67 | 137 | 2.6 | 6.1 | 0.00 | 0.00 | 0.00 | 49 | 996.6 |
| 20260510023038 | 68 | 227 | 1.7 | 10.4 | 0.00 | 0.00 | 0.00 | 49 | 995.9 |
| 20260510021539 | 68 | 247 | 2.6 | 10.4 | 0.00 | 0.00 | 0.00 | 49 | 995.3 |
| 20260510020034 | 68 | 241 | 5.2 | 10.4 | 0.00 | 0.00 | 0.00 | 48 | 995.1 |
| 20260510014533 | 68 | 214 | 6.1 | 11.3 | 0.00 | 0.00 | 0.00 | 48 | 995.0 |
| 20260510013030 | 68 | 245 | 5.2 | 15.6 | 0.00 | 0.00 | 0.00 | 50 | 995.2 |
| 20260510011530 | 67 | 234 | 5.2 | 13.9 | 0.00 | 0.00 | 0.00 | 49 | 995.3 |
| 20260510010023 | 67 | 238 | 7.0 | 14.8 | 0.00 | 0.00 | 0.00 | 50 | 995.0 |
| 20260510004520 | 67 | 215 | 4.3 | 12.2 | 0.00 | 0.00 | 0.00 | 49 | 995.2 |
| 20260510003023 | 67 | 252 | 6.1 | 12.2 | 0.00 | 0.00 | 0.00 | 49 | 995.3 |
| 20260510001517 | 67 | 264 | 7.0 | 13.9 | 0.00 | 0.00 | 0.00 | 49 | 995.1 |
| 20260510000019 | 67 | 237 | 4.3 | 12.2 | 0.00 | 0.00 | 0.00 | 51 | 995.2 |
| 20260509234515 | 66 | 209 | 5.2 | 14.8 | 0.00 | 0.00 | 0.00 | 50 | 995.2 |
| 20260509233013 | 66 | 279 | 7.0 | 13.0 | 0.00 | 0.00 | 0.00 | 50 | 995.1 |
| 20260509231512 | 66 | 259 | 5.2 | 11.3 | 0.00 | 0.00 | 0.00 | 51 | 995.3 |
| 20260509230010 | 66 | 255 | 5.2 | 14.8 | 0.00 | 0.00 | 0.00 | 51 | 995.1 |
| 20260509224508 | 65 | 267 | 5.2 | 13.9 | 0.00 | 0.00 | 0.00 | 51 | 995.2 |
| 20260509223005 | 65 | 245 | 7.0 | 14.8 | 0.00 | 0.00 | 0.00 | 51 | 995.0 |
| 20260509221504 | 64 | 264 | 4.3 | 11.3 | 0.00 | 0.00 | 0.00 | 53 | 995.2 |
| 20260509220001 | 64 | 230 | 4.3 | 9.6 | 0.00 | 0.00 | 0.00 | 55 | 995.2 |
| 20260509214608 | 63 | 276 | 5.2 | 9.6 | 0.00 | 0.00 | 0.00 | 55 | 995.2 |
| 20260509213057 | 62 | 267 | 3.5 | 9.6 | 0.00 | 0.00 | 0.00 | 56 | 995.4 |
| 20260509211558 | 61 | 269 | 2.6 | 6.1 | 0.00 | 0.00 | 0.00 | 59 | 995.3 |
| 20260509210107 | 60 | 243 | 2.6 | 7.8 | 0.00 | 0.00 | 0.00 | 59 | 995.4 |
| 20260509204551 | 59 | 264 | 0.9 | 6.1 | 0.00 | 0.00 | 0.00 | 61 | 995.2 |
| 20260509203043 | 58 | 259 | 2.6 | 4.3 | 0.00 | 0.00 | 0.00 | 64 | 995.2 |
| 20260509201548 | 57 | 279 | 0.0 | 4.3 | 0.00 | 0.00 | 0.00 | 66 | 994.9 |
| 20260509200045 | 54 | 270 | 0.9 | 3.5 | 0.00 | 0.00 | 0.00 | 70 | 994.9 |
| 20260509194537 | 54 | 252 | 0.9 | 3.5 | 0.00 | 0.00 | 0.00 | 68 | 994.7 |
| 20260509193036 | 54 | 267 | 0.0 | 2.6 | 0.00 | 0.00 | 0.00 | 68 | 994.8 |
| 20260509191536 | 54 | 268 | 0.9 | 3.5 | 0.00 | 0.00 | 0.00 | 68 | 994.8 |
| 20260509190037 | 54 | 282 | 1.7 | 4.3 | 0.00 | 0.00 | 0.00 | 68 | 994.5 |
| 20260509184535 | 54 | 246 | 2.6 | 4.3 | 0.00 | 0.00 | 0.00 | 70 | 994.4 |
| 20260509183033 | 53 | 246 | 1.7 | 3.5 | 0.00 | 0.00 | 0.00 | 71 | 994.2 |
| 20260509181530 | 53 | 255 | 0.0 | 2.6 | 0.00 | 0.00 | 0.00 | 71 | 994.3 |
| 20260509180030 | 53 | 239 | 1.7 | 3.5 | 0.00 | 0.00 | 0.00 | 71 | 994.2 |
| 20260509174528 | 54 | 235 | 1.7 | 4.3 | 0.00 | 0.00 | 0.00 | 68 | 994.0 |
| 20260509173027 | 54 | 254 | 2.6 | 5.2 | 0.00 | 0.00 | 0.00 | 67 | 994.1 |
| 20260509171535 | 55 | 252 | 2.6 | 5.2 | 0.00 | 0.00 | 0.00 | 68 | 994.2 |
| 20260509170030 | 55 | 245 | 1.7 | 4.3 | 0.00 | 0.01 | 0.00 | 67 | 994.1 |
| 20260509164525 | 54 | 256 | 1.7 | 6.1 | 0.00 | 0.01 | 0.00 | 68 | 994.1 |
| 20260509163025 | 53 | 254 | 2.6 | 4.3 | 0.00 | 0.01 | 0.00 | 69 | 994.3 |
| 20260509161523 | 54 | 271 | 1.7 | 4.3 | 0.00 | 0.01 | 0.00 | 67 | 994.3 |
| 20260509160023 | 54 | 269 | 2.6 | 6.1 | 0.00 | 0.02 | 0.00 | 68 | 994.2 |
| 20260509154520 | 54 | 250 | 3.5 | 6.1 | 0.00 | 0.02 | 0.00 | 68 | 994.3 |
| 20260509153017 | 54 | 228 | 3.5 | 7.8 | 0.00 | 0.02 | 0.00 | 67 | 994.0 |
| 20260509151516 | 54 | 271 | 4.3 | 7.8 | 0.00 | 0.02 | 0.00 | 67 | 994.1 |
| 20260509150019 | 53 | 247 | 3.5 | 5.2 | 0.00 | 0.02 | 0.00 | 68 | 994.4 |
| 20260509144518 | 53 | 241 | 2.6 | 4.3 | 0.00 | 0.02 | 0.00 | 68 | 994.6 |
| 20260509143009 | 54 | 262 | 1.7 | 5.2 | 0.00 | 0.02 | 0.00 | 66 | 994.9 |
| 20260509141510 | 54 | 267 | 3.5 | 9.6 | 0.00 | 0.02 | 0.00 | 66 | 994.9 |
| 20260509140008 | 54 | 264 | 3.5 | 6.1 | 0.00 | 0.02 | 0.00 | 66 | 994.9 |
| 20260509134510 | 55 | 269 | 3.5 | 7.8 | 0.00 | 0.02 | 0.00 | 65 | 995.0 |
| 20260509133004 | 55 | 271 | 3.5 | 7.8 | 0.00 | 0.02 | 0.00 | 64 | 995.0 |
| 20260509131502 | 56 | 244 | 4.3 | 10.4 | 0.00 | 0.02 | 0.00 | 63 | 994.8 |
| 20260509130059 | 56 | 259 | 4.3 | 13.9 | 0.00 | 0.02 | 0.00 | 63 | 994.7 |
| 20260509124558 | 55 | 257 | 4.3 | 10.4 | 0.00 | 0.02 | 0.00 | 64 | 994.8 |
| 20260509123055 | 56 | 226 | 6.1 | 11.3 | 0.00 | 0.02 | 0.00 | 62 | 994.6 |
| 20260509121553 | 55 | 278 | 5.2 | 10.4 | 0.00 | 0.02 | 0.00 | 65 | 994.6 |
| 20260509120049 | 55 | 229 | 5.2 | 9.6 | 0.00 | 0.03 | 0.02 | 66 | 994.4 |
| 20260509114548 | 55 | 241 | 3.5 | 6.1 | 0.00 | 0.03 | 0.02 | 65 | 994.6 |
| 20260509113051 | 54 | 245 | 2.6 | 7.0 | 0.00 | 0.03 | 0.02 | 66 | 994.8 |
| 20260509111546 | 53 | 260 | 6.1 | 10.4 | 0.00 | 0.03 | 0.02 | 68 | 994.6 |
| 20260509110044 | 53 | 264 | 1.7 | 3.5 | 0.00 | 0.04 | 0.02 | 70 | 995.2 |
| 20260509104544 | 53 | 268 | 0.9 | 4.3 | 0.00 | 0.04 | 0.02 | 69 | 995.1 |
| 20260509103042 | 54 | 238 | 1.7 | 6.1 | 0.00 | 0.04 | 0.02 | 68 | 995.1 |
| 20260509101550 | 54 | 260 | 0.9 | 4.3 | 0.00 | 0.04 | 0.02 | 68 | 995.1 |
| 20260509100041 | 55 | 269 | 1.7 | 5.2 | 0.00 | 0.04 | 0.02 | 66 | 995.1 |
| 20260509094540 | 55 | 244 | 1.7 | 7.8 | 0.00 | 0.04 | 0.02 | 64 | 995.0 |
| 20260509093036 | 55 | 229 | 4.3 | 9.6 | 0.00 | 0.04 | 0.02 | 64 | 994.9 |
| 20260509091533 | 55 | 251 | 4.3 | 8.7 | 0.00 | 0.04 | 0.02 | 65 | 995.1 |
| 20260509090031 | 53 | 249 | 3.5 | 6.1 | 0.00 | 0.04 | 0.02 | 69 | 995.3 |
| 20260509084530 | 53 | 241 | 0.9 | 6.1 | 0.00 | 0.04 | 0.02 | 70 | 995.3 |
| 20260509083028 | 53 | 248 | 0.0 | 2.6 | 0.00 | 0.04 | 0.02 | 70 | 995.2 |
| 20260509081531 | 53 | 257 | 0.0 | 1.7 | 0.00 | 0.04 | 0.02 | 70 | 995.1 |
| 20260509080024 | 54 | 246 | 0.9 | 2.6 | 0.00 | 0.25 | 0.02 | 69 | 995.1 |
| 20260509074523 | 55 | 245 | 0.0 | 3.5 | 0.00 | 0.25 | 0.02 | 69 | 995.1 |
| 20260509073019 | 55 | 248 | 1.7 | 6.1 | 0.00 | 0.25 | 0.02 | 69 | 995.1 |
| 20260509071518 | 56 | 249 | 2.6 | 5.2 | 0.00 | 0.25 | 0.02 | 69 | 995.0 |
| 20260509070016 | 56 | 260 | 1.7 | 6.1 | 0.00 | 0.55 | 0.02 | 69 | 995.1 |
| 20260509064515 | 56 | 259 | 0.9 | 5.2 | 0.00 | 0.55 | 0.02 | 70 | 995.0 |
| 20260509063013 | 57 | 255 | 1.7 | 6.1 | 0.00 | 0.55 | 0.02 | 69 | 994.8 |
| 20260509061511 | 57 | 252 | 2.6 | 9.6 | 0.00 | 0.55 | 0.02 | 69 | 994.8 |
| 20260509060010 | 58 | 252 | 4.3 | 12.2 | 0.00 | 0.75 | 0.02 | 69 | 994.5 |